Time,TemperatureF,DewpointF,PressureIn,WindDirection,WindDirectionDegrees,WindSpeedMPH,WindSpeedGustMPH,Humidity,HourlyPrecipIn,Conditions,Clouds,dailyrainin,SoftwareType,DateUTC
2013-01-04 00:03:00,27.9,22.2,30.30,North,5,3.0,9.0,79,0.00,,,0.00,Wunderground v.1.15,2013-01-04 05:03:00,
2013-01-04 00:05:00,27.9,22.2,30.30,WNW,295,4.0,9.0,79,0.00,,,0.00,Wunderground v.1.15,2013-01-04 05:05:00,
2013-01-04 00:06:00,27.9,22.2,30.30,North,355,4.0,9.0,79,0.00,,,0.00,Wunderground v.1.15,2013-01-04 05:06:00,
2013-01-04 00:11:00,27.9,22.2,30.30,NNW,346,4.0,4.0,79,0.00,,,0.00,Wunderground v.1.15,2013-01-04 05:11:00,
2013-01-04 00:15:00,27.9,22.2,30.30,West,280,3.0,6.0,79,0.00,,,0.00,Wunderground v.1.15,2013-01-04 05:15:00,
2013-01-04 00:20:00,27.9,22.2,30.30,North,11,3.0,6.0,79,0.00,,,0.00,Wunderground v.1.15,2013-01-04 05:20:00,
2013-01-04 00:25:00,27.9,22.2,30.30,NNW,341,2.0,7.0,79,0.00,,,0.00,Wunderground v.1.15,2013-01-04 05:25:00,
2013-01-04 00:31:00,27.9,22.2,30.29,North,355,3.0,11.0,79,0.00,,,0.00,Wunderground v.1.15,2013-01-04 05:31:00,
2013-01-04 00:37:00,27.9,22.2,30.29,NW,315,3.0,11.0,79,0.00,,,0.00,Wunderground v.1.15,2013-01-04 05:37:00,
2013-01-04 00:43:00,27.9,22.2,30.29,NNW,331,2.0,11.0,79,0.00,,,0.00,Wunderground v.1.15,2013-01-04 05:43:00,
2013-01-04 00:48:00,27.8,22.1,30.29,WNW,295,2.0,11.0,79,0.00,,,0.00,Wunderground v.1.15,2013-01-04 05:48:00,
2013-01-04 00:53:00,27.8,22.1,30.29,North,10,2.0,11.0,79,0.00,,,0.00,Wunderground v.1.15,2013-01-04 05:53:00,
2013-01-04 00:59:00,27.8,22.1,30.29,WNW,285,3.0,11.0,79,0.00,,,0.00,Wunderground v.1.15,2013-01-04 05:59:00,
2013-01-04 01:04:00,27.8,22.4,30.29,West,259,2.0,3.0,80,0.00,,,0.00,Wunderground v.1.15,2013-01-04 06:04:00,
2013-01-04 01:10:00,27.8,22.4,30.29,NNW,330,2.0,5.0,80,0.00,,,0.00,Wunderground v.1.15,2013-01-04 06:10:00,
2013-01-04 01:16:00,27.8,22.4,30.29,NNW,344,3.0,5.0,80,0.00,,,0.00,Wunderground v.1.15,2013-01-04 06:16:00,
2013-01-04 01:21:00,27.8,22.4,30.29,WNW,298,3.0,5.0,80,0.00,,,0.00,Wunderground v.1.15,2013-01-04 06:21:00,
2013-01-04 01:26:00,27.8,22.4,30.28,NW,309,3.0,5.0,80,0.00,,,0.00,Wunderground v.1.15,2013-01-04 06:26:00,
2013-01-04 01:32:00,27.8,22.4,30.29,NNW,329,2.0,14.0,80,0.00,,,0.00,Wunderground v.1.15,2013-01-04 06:32:00,
2013-01-04 01:38:00,27.7,22.3,30.28,WSW,237,1.0,14.0,80,0.00,,,0.00,Wunderground v.1.15,2013-01-04 06:38:00,
2013-01-04 01:43:00,27.7,22.3,30.28,SSW,202,1.0,14.0,80,0.00,,,0.00,Wunderground v.1.15,2013-01-04 06:43:00,
2013-01-04 01:49:00,27.7,22.3,30.29,WSW,254,1.0,14.0,80,0.00,,,0.00,Wunderground v.1.15,2013-01-04 06:49:00,
2013-01-04 01:55:00,27.7,22.6,30.29,East,88,1.0,14.0,81,0.00,,,0.00,Wunderground v.1.15,2013-01-04 06:55:00,
2013-01-04 02:01:00,27.6,22.5,30.29,ESE,115,1.0,1.0,81,0.00,,,0.00,Wunderground v.1.15,2013-01-04 07:01:00,
2013-01-04 02:06:00,27.6,22.5,30.29,West,275,1.0,3.0,81,0.00,,,0.00,Wunderground v.1.15,2013-01-04 07:06:00,
2013-01-04 02:11:00,27.7,22.6,30.29,West,260,2.0,2.0,81,0.00,,,0.00,Wunderground v.1.15,2013-01-04 07:11:00,
2013-01-04 02:17:00,27.7,22.6,30.29,NE,38,1.0,2.0,81,0.00,,,0.00,Wunderground v.1.15,2013-01-04 07:17:00,
2013-01-04 02:23:00,27.7,22.6,30.29,North,5,1.0,3.0,81,0.00,,,0.00,Wunderground v.1.15,2013-01-04 07:23:00,
2013-01-04 02:28:00,27.8,22.7,30.30,SSW,192,2.0,4.0,81,0.00,,,0.00,Wunderground v.1.15,2013-01-04 07:28:00,
2013-01-04 02:33:00,27.8,22.7,30.30,NW,304,2.0,9.0,81,0.00,,,0.00,Wunderground v.1.15,2013-01-04 07:33:00,
2013-01-04 02:38:00,27.8,22.7,30.30,NW,304,2.0,9.0,81,0.00,,,0.00,Wunderground v.1.15,2013-01-04 07:38:00,
2013-01-04 02:44:00,27.8,22.7,30.30,WNW,284,1.0,9.0,81,0.00,,,0.00,Wunderground v.1.15,2013-01-04 07:44:00,
2013-01-04 02:49:00,27.8,22.7,30.30,NNE,15,1.0,9.0,81,0.00,,,0.00,Wunderground v.1.15,2013-01-04 07:49:00,
2013-01-04 02:54:00,27.9,22.8,30.30,WNW,298,2.0,9.0,81,0.00,,,0.00,Wunderground v.1.15,2013-01-04 07:54:00,
2013-01-04 03:01:00,27.9,22.8,30.30,SSE,157,3.0,3.0,81,0.00,,,0.00,Wunderground v.1.15,2013-01-04 08:01:00,
2013-01-04 03:06:00,27.9,22.8,30.30,West,261,3.0,9.0,81,0.00,,,0.00,Wunderground v.1.15,2013-01-04 08:06:00,
2013-01-04 03:12:00,27.9,22.8,30.30,SSE,153,4.0,4.0,81,0.00,,,0.00,Wunderground v.1.15,2013-01-04 08:12:00,
2013-01-04 03:18:00,27.9,22.8,30.30,West,275,3.0,8.0,81,0.00,,,0.00,Wunderground v.1.15,2013-01-04 08:18:00,
2013-01-04 03:24:00,27.9,22.8,30.29,SW,223,4.0,9.0,81,0.00,,,0.00,Wunderground v.1.15,2013-01-04 08:24:00,
2013-01-04 03:29:00,27.9,22.8,30.29,East,94,4.0,9.0,81,0.00,,,0.00,Wunderground v.1.15,2013-01-04 08:29:00,
2013-01-04 03:34:00,27.9,22.8,30.30,WNW,295,3.0,7.0,81,0.00,,,0.00,Wunderground v.1.15,2013-01-04 08:34:00,
2013-01-04 03:39:00,27.9,22.8,30.30,West,279,3.0,7.0,81,0.00,,,0.00,Wunderground v.1.15,2013-01-04 08:39:00,
2013-01-04 03:45:00,27.9,22.8,30.29,SSE,159,3.0,7.0,81,0.00,,,0.00,Wunderground v.1.15,2013-01-04 08:45:00,
2013-01-04 03:51:00,27.9,22.8,30.29,South,179,3.0,7.0,81,0.00,,,0.00,Wunderground v.1.15,2013-01-04 08:51:00,
2013-01-04 03:57:00,27.8,23.0,30.29,East,101,2.0,7.0,82,0.00,,,0.00,Wunderground v.1.15,2013-01-04 08:57:00,
2013-01-04 04:03:00,27.8,23.0,30.29,NNW,337,2.0,3.0,82,0.00,,,0.00,Wunderground v.1.15,2013-01-04 09:03:00,
2013-01-04 04:09:00,27.8,23.0,30.29,North,9,2.0,3.0,82,0.00,,,0.00,Wunderground v.1.15,2013-01-04 09:09:00,
2013-01-04 04:15:00,27.8,23.0,30.29,NNE,29,2.0,3.0,82,0.00,,,0.00,Wunderground v.1.15,2013-01-04 09:15:00,
2013-01-04 04:21:00,27.8,23.0,30.29,East,101,1.0,1.0,82,0.00,,,0.00,Wunderground v.1.15,2013-01-04 09:21:00,
2013-01-04 04:27:00,27.8,23.0,30.29,ENE,65,1.0,3.0,82,0.00,,,0.00,Wunderground v.1.15,2013-01-04 09:27:00,
2013-01-04 04:33:00,27.8,23.0,30.29,ENE,61,2.0,13.0,82,0.00,,,0.00,Wunderground v.1.15,2013-01-04 09:33:00,
2013-01-04 04:38:00,27.8,23.0,30.29,East,99,2.0,13.0,82,0.00,,,0.00,Wunderground v.1.15,2013-01-04 09:38:00,
2013-01-04 04:44:00,27.9,23.1,30.29,NW,309,2.0,13.0,82,0.00,,,0.00,Wunderground v.1.15,2013-01-04 09:44:00,
2013-01-04 04:50:00,27.9,23.1,30.29,ENE,71,1.0,13.0,82,0.00,,,0.00,Wunderground v.1.15,2013-01-04 09:50:00,
2013-01-04 04:56:00,27.9,23.4,30.29,NNW,336,1.0,13.0,83,0.00,,,0.00,Wunderground v.1.15,2013-01-04 09:56:00,
2013-01-04 05:01:00,27.9,23.4,30.29,SE,134,2.0,5.0,83,0.00,,,0.00,Wunderground v.1.15,2013-01-04 10:01:00,
2013-01-04 05:07:00,27.9,23.1,30.29,WNW,292,2.0,5.0,82,0.00,,,0.00,Wunderground v.1.15,2013-01-04 10:07:00,
2013-01-04 05:12:00,28.0,23.2,30.29,West,280,2.0,4.0,82,0.00,,,0.00,Wunderground v.1.15,2013-01-04 10:12:00,
2013-01-04 05:18:00,28.0,23.2,30.29,SSE,161,2.0,5.0,82,0.00,,,0.00,Wunderground v.1.15,2013-01-04 10:18:00,
2013-01-04 05:23:00,28.0,23.2,30.29,NNW,331,2.0,3.0,82,0.00,,,0.00,Wunderground v.1.15,2013-01-04 10:23:00,
2013-01-04 05:29:00,28.1,23.3,30.29,SW,221,1.0,3.0,82,0.00,,,0.00,Wunderground v.1.15,2013-01-04 10:29:00,
2013-01-04 05:34:00,28.1,23.3,30.29,NW,315,2.0,11.0,82,0.00,,,0.00,Wunderground v.1.15,2013-01-04 10:34:00,
2013-01-04 05:40:00,28.1,23.3,30.28,NNE,26,3.0,8.0,82,0.00,,,0.00,Wunderground v.1.15,2013-01-04 10:40:00,
2013-01-04 05:45:00,28.2,23.4,30.28,SW,219,2.0,8.0,82,0.00,,,0.00,Wunderground v.1.15,2013-01-04 10:45:00,
2013-01-04 05:50:00,28.1,23.3,30.28,SSW,195,2.0,2.0,82,0.00,,,0.00,Wunderground v.1.15,2013-01-04 10:50:00,
2013-01-04 05:56:00,28.1,23.3,30.28,West,276,2.0,8.0,82,0.00,,,0.00,Wunderground v.1.15,2013-01-04 10:56:00,
2013-01-04 06:02:00,28.2,23.4,30.28,North,5,1.0,2.0,82,0.00,,,0.00,Wunderground v.1.15,2013-01-04 11:02:00,
2013-01-04 06:07:00,28.2,23.4,30.28,SE,143,1.0,4.0,82,0.00,,,0.00,Wunderground v.1.15,2013-01-04 11:07:00,
2013-01-04 06:12:00,28.1,23.3,30.28,ENE,61,2.0,6.0,82,0.00,,,0.00,Wunderground v.1.15,2013-01-04 11:12:00,
2013-01-04 06:17:00,28.1,23.3,30.28,SSE,157,1.0,6.0,82,0.00,,,0.00,Wunderground v.1.15,2013-01-04 11:17:00,
2013-01-04 06:23:00,28.2,23.7,30.27,South,169,2.0,3.0,83,0.00,,,0.00,Wunderground v.1.15,2013-01-04 11:23:00,
2013-01-04 06:29:00,28.2,23.7,30.27,South,174,3.0,4.0,83,0.00,,,0.00,Wunderground v.1.15,2013-01-04 11:29:00,
2013-01-04 06:34:00,28.2,23.7,30.28,South,178,3.0,12.0,83,0.00,,,0.00,Wunderground v.1.15,2013-01-04 11:34:00,
2013-01-04 06:39:00,28.2,23.4,30.28,WSW,244,2.0,12.0,82,0.00,,,0.00,Wunderground v.1.15,2013-01-04 11:39:00,
2013-01-04 06:44:00,28.2,23.4,30.28,SE,146,2.0,12.0,82,0.00,,,0.00,Wunderground v.1.15,2013-01-04 11:44:00,
2013-01-04 06:49:00,28.3,23.5,30.28,SW,234,2.0,12.0,82,0.00,,,0.00,Wunderground v.1.15,2013-01-04 11:49:00,
2013-01-04 06:55:00,28.3,23.5,30.28,SSE,160,3.0,12.0,82,0.00,,,0.00,Wunderground v.1.15,2013-01-04 11:55:00,
2013-01-04 07:01:00,28.3,23.2,30.28,NNE,21,2.0,7.0,81,0.00,,,0.00,Wunderground v.1.15,2013-01-04 12:01:00,
2013-01-04 07:06:00,28.4,23.3,30.28,SSW,207,2.0,8.0,81,0.00,,,0.00,Wunderground v.1.15,2013-01-04 12:06:00,
2013-01-04 07:11:00,28.4,23.3,30.28,WSW,240,3.0,3.0,81,0.00,,,0.00,Wunderground v.1.15,2013-01-04 12:11:00,
2013-01-04 07:17:00,28.4,23.3,30.28,ESE,113,2.0,10.0,81,0.00,,,0.00,Wunderground v.1.15,2013-01-04 12:17:00,
2013-01-04 07:22:00,28.4,23.3,30.28,SSE,159,2.0,4.0,81,0.00,,,0.00,Wunderground v.1.15,2013-01-04 12:22:00,
2013-01-04 07:28:00,28.4,23.6,30.28,South,184,2.0,6.0,82,0.00,,,0.00,Wunderground v.1.15,2013-01-04 12:28:00,
2013-01-04 07:33:00,28.4,23.6,30.28,NNE,30,2.0,9.0,82,0.00,,,0.00,Wunderground v.1.15,2013-01-04 12:33:00,
2013-01-04 07:39:00,28.4,23.6,30.28,East,98,2.0,9.0,82,0.00,,,0.00,Wunderground v.1.15,2013-01-04 12:39:00,
2013-01-04 07:44:00,28.5,23.7,30.28,SSE,147,2.0,9.0,82,0.00,,,0.00,Wunderground v.1.15,2013-01-04 12:44:00,
2013-01-04 07:50:00,28.5,23.7,30.28,SSE,160,3.0,9.0,82,0.00,,,0.00,Wunderground v.1.15,2013-01-04 12:50:00,
2013-01-04 07:56:00,28.5,23.7,30.28,NE,44,3.0,9.0,82,0.00,,,0.00,Wunderground v.1.15,2013-01-04 12:56:00,
2013-01-04 08:02:00,28.5,23.7,30.28,South,187,3.0,7.0,82,0.00,,,0.00,Wunderground v.1.15,2013-01-04 13:02:00,
2013-01-04 08:08:00,28.6,23.8,30.28,SSE,156,4.0,7.0,82,0.00,,,0.00,Wunderground v.1.15,2013-01-04 13:08:00,
2013-01-04 08:14:00,28.6,23.8,30.27,SE,146,3.0,4.0,82,0.00,,,0.00,Wunderground v.1.15,2013-01-04 13:14:00,
2013-01-04 08:19:00,28.6,23.8,30.27,SSW,200,3.0,7.0,82,0.00,,,0.00,Wunderground v.1.15,2013-01-04 13:19:00,
2013-01-04 08:25:00,28.6,23.8,30.27,ESE,109,3.0,4.0,82,0.00,,,0.00,Wunderground v.1.15,2013-01-04 13:25:00,
2013-01-04 08:31:00,28.6,23.8,30.27,South,188,2.0,7.0,82,0.00,,,0.00,Wunderground v.1.15,2013-01-04 13:31:00,
2013-01-04 08:36:00,28.7,23.9,30.28,SSW,202,3.0,10.0,82,0.00,,,0.00,Wunderground v.1.15,2013-01-04 13:36:00,
2013-01-04 08:42:00,28.8,24.0,30.28,North,355,2.0,10.0,82,0.00,,,0.00,Wunderground v.1.15,2013-01-04 13:42:00,
2013-01-04 08:48:00,28.8,24.0,30.28,SSE,159,2.0,10.0,82,0.00,,,0.00,Wunderground v.1.15,2013-01-04 13:48:00,
2013-01-04 08:54:00,28.9,23.8,30.29,West,268,3.0,10.0,81,0.00,,,0.00,Wunderground v.1.15,2013-01-04 13:54:00,
2013-01-04 09:00:00,28.9,24.1,30.29,South,177,2.0,2.0,82,0.00,,,0.00,Wunderground v.1.15,2013-01-04 14:00:00,
2013-01-04 09:06:00,29.0,23.9,30.29,East,101,2.0,5.0,81,0.00,,,0.00,Wunderground v.1.15,2013-01-04 14:06:00,
2013-01-04 09:12:00,29.0,23.9,30.29,SSW,192,2.0,7.0,81,0.00,,,0.00,Wunderground v.1.15,2013-01-04 14:12:00,
2013-01-04 09:17:00,29.1,24.0,30.29,SSE,167,3.0,10.0,81,0.00,,,0.00,Wunderground v.1.15,2013-01-04 14:17:00,
2013-01-04 09:22:00,29.2,24.1,30.29,West,279,3.0,4.0,81,0.00,,,0.00,Wunderground v.1.15,2013-01-04 14:22:00,
2013-01-04 09:27:00,29.2,24.1,30.30,West,266,2.0,4.0,81,0.00,,,0.00,Wunderground v.1.15,2013-01-04 14:27:00,
2013-01-04 09:33:00,29.3,24.2,30.29,ENE,69,2.0,11.0,81,0.00,,,0.00,Wunderground v.1.15,2013-01-04 14:33:00,
2013-01-04 09:39:00,29.4,24.3,30.30,SSE,157,2.0,11.0,81,0.00,,,0.00,Wunderground v.1.15,2013-01-04 14:39:00,
2013-01-04 09:45:00,29.4,24.3,30.30,NW,311,2.0,11.0,81,0.00,,,0.00,Wunderground v.1.15,2013-01-04 14:45:00,
2013-01-04 09:51:00,29.5,24.4,30.30,East,87,2.0,11.0,81,0.00,,,0.00,Wunderground v.1.15,2013-01-04 14:51:00,
2013-01-04 09:56:00,29.6,24.2,30.30,NW,313,2.0,11.0,80,0.00,,,0.00,Wunderground v.1.15,2013-01-04 14:56:00,
2013-01-04 10:01:00,29.6,24.2,30.30,NW,323,3.0,4.0,80,0.00,,,0.00,Wunderground v.1.15,2013-01-04 15:01:00,
2013-01-04 10:07:00,29.7,24.3,30.30,SSW,210,3.0,6.0,80,0.00,,,0.00,Wunderground v.1.15,2013-01-04 15:07:00,
2013-01-04 10:12:00,29.8,24.4,30.30,SE,133,2.0,2.0,80,0.00,,,0.00,Wunderground v.1.15,2013-01-04 15:12:00,
2013-01-04 10:18:00,29.8,24.4,30.30,NNE,26,2.0,16.0,80,0.00,,,0.00,Wunderground v.1.15,2013-01-04 15:18:00,
2013-01-04 10:23:00,29.9,24.2,30.31,WNW,298,3.0,3.0,79,0.00,,,0.00,Wunderground v.1.15,2013-01-04 15:23:00,
2013-01-04 10:29:00,29.9,24.2,30.30,NNW,327,3.0,9.0,79,0.00,,,0.00,Wunderground v.1.15,2013-01-04 15:29:00,
2013-01-04 10:35:00,30.0,24.3,30.31,West,273,3.0,11.0,79,0.00,,,0.00,Wunderground v.1.15,2013-01-04 15:35:00,
2013-01-04 10:40:00,30.0,24.3,30.30,West,264,3.0,3.0,79,0.00,,,0.00,Wunderground v.1.15,2013-01-04 15:40:00,
2013-01-04 10:45:00,30.1,24.4,30.30,NW,324,3.0,11.0,79,0.00,,,0.00,Wunderground v.1.15,2013-01-04 15:45:00,
2013-01-04 10:50:00,30.1,24.4,30.30,SSW,207,3.0,3.0,79,0.00,,,0.00,Wunderground v.1.15,2013-01-04 15:50:00,
2013-01-04 10:55:00,30.2,24.5,30.30,North,355,3.0,11.0,79,0.00,,,0.00,Wunderground v.1.15,2013-01-04 15:55:00,
2013-01-04 11:01:00,30.3,24.6,30.30,NNW,340,2.0,6.0,79,0.00,,,0.00,Wunderground v.1.15,2013-01-04 16:01:00,
2013-01-04 11:06:00,30.4,24.7,30.30,SSW,194,3.0,8.0,79,0.00,,,0.00,Wunderground v.1.15,2013-01-04 16:06:00,
2013-01-04 11:11:00,30.5,24.8,30.29,SE,143,4.0,4.0,79,0.00,,,0.00,Wunderground v.1.15,2013-01-04 16:11:00,
2013-01-04 11:16:00,30.5,24.8,30.29,SSE,163,3.0,5.0,79,0.00,,,0.00,Wunderground v.1.15,2013-01-04 16:16:00,
2013-01-04 11:21:00,30.6,24.9,30.29,East,90,2.0,4.0,79,0.00,,,0.00,Wunderground v.1.15,2013-01-04 16:21:00,
2013-01-04 11:27:00,30.7,25.0,30.29,WSW,254,3.0,5.0,79,0.00,,,0.00,Wunderground v.1.15,2013-01-04 16:27:00,
2013-01-04 11:33:00,30.7,25.0,30.28,SE,128,3.0,16.0,79,0.00,,,0.00,Wunderground v.1.15,2013-01-04 16:33:00,
2013-01-04 11:38:00,30.7,25.0,30.28,NW,306,3.0,16.0,79,0.00,,,0.00,Wunderground v.1.15,2013-01-04 16:38:00,
2013-01-04 11:43:00,30.7,25.0,30.27,SE,136,3.0,16.0,79,0.00,,,0.00,Wunderground v.1.15,2013-01-04 16:43:00,
2013-01-04 11:49:00,30.8,24.7,30.27,North,351,2.0,16.0,78,0.00,,,0.00,Wunderground v.1.15,2013-01-04 16:49:00,
2013-01-04 11:54:00,31.0,24.9,30.27,NW,317,3.0,16.0,78,0.00,,,0.00,Wunderground v.1.15,2013-01-04 16:54:00,
2013-01-04 11:59:00,31.2,24.8,30.26,SW,226,4.0,16.0,77,0.00,,,0.00,Wunderground v.1.15,2013-01-04 16:59:00,
2013-01-04 12:05:00,31.4,25.0,30.25,SW,217,5.0,9.0,77,0.00,,,0.00,Wunderground v.1.15,2013-01-04 17:05:00,
2013-01-04 12:10:00,31.5,25.1,30.25,ESE,123,4.0,4.0,77,0.00,,,0.00,Wunderground v.1.15,2013-01-04 17:10:00,
2013-01-04 12:16:00,31.6,24.9,30.25,SW,214,4.0,8.0,76,0.00,,,0.00,Wunderground v.1.15,2013-01-04 17:16:00,
2013-01-04 12:21:00,31.7,25.0,30.25,SSW,204,3.0,4.0,76,0.00,,,0.00,Wunderground v.1.15,2013-01-04 17:21:00,
2013-01-04 12:26:00,31.8,25.4,30.25,North,360,2.0,4.0,77,0.00,,,0.00,Wunderground v.1.15,2013-01-04 17:26:00,
2013-01-04 12:31:00,31.9,25.2,30.25,NW,307,2.0,7.0,76,0.00,,,0.00,Wunderground v.1.15,2013-01-04 17:31:00,
2013-01-04 12:37:00,31.9,24.9,30.24,SSW,206,3.0,11.0,75,0.00,,,0.00,Wunderground v.1.15,2013-01-04 17:37:00,
2013-01-04 12:42:00,32.0,25.0,30.24,WSW,238,4.0,11.0,75,0.00,,,0.00,Wunderground v.1.15,2013-01-04 17:42:00,
2013-01-04 12:48:00,32.1,25.1,30.24,NW,304,3.0,11.0,75,0.00,,,0.00,Wunderground v.1.15,2013-01-04 17:48:00,
2013-01-04 12:54:00,32.3,24.9,30.24,SE,142,3.0,11.0,74,0.00,,,0.00,Wunderground v.1.15,2013-01-04 17:54:00,
2013-01-04 12:59:00,32.3,24.6,30.24,NW,314,4.0,11.0,73,0.00,,,0.00,Wunderground v.1.15,2013-01-04 17:59:00,
2013-01-04 13:04:00,32.5,24.5,30.24,North,360,4.0,9.0,72,0.00,,,0.00,Wunderground v.1.15,2013-01-04 18:04:00,
2013-01-04 13:09:00,33.0,25.0,30.23,SW,230,4.0,9.0,72,0.00,,,0.00,Wunderground v.1.15,2013-01-04 18:09:00,
2013-01-04 13:15:00,33.3,24.6,30.24,SSW,200,4.0,7.0,70,0.00,,,0.00,Wunderground v.1.15,2013-01-04 18:15:00,
2013-01-04 13:21:00,32.8,23.7,30.23,SSW,207,5.0,5.0,69,0.00,,,0.00,Wunderground v.1.15,2013-01-04 18:21:00,
2013-01-04 13:27:00,33.0,23.9,30.23,NNW,327,4.0,6.0,69,0.00,,,0.00,Wunderground v.1.15,2013-01-04 18:27:00,
2013-01-04 13:32:00,32.7,23.6,30.23,WSW,247,4.0,11.0,69,0.00,,,0.00,Wunderground v.1.15,2013-01-04 18:32:00,
2013-01-04 13:38:00,33.0,23.9,30.23,SSE,161,4.0,11.0,69,0.00,,,0.00,Wunderground v.1.15,2013-01-04 18:38:00,
2013-01-04 13:44:00,33.4,24.0,30.23,SSW,200,4.0,11.0,68,0.00,,,0.00,Wunderground v.1.15,2013-01-04 18:44:00,
2013-01-04 13:50:00,33.4,24.0,30.23,WNW,283,6.0,6.0,68,0.00,,,0.00,Wunderground v.1.15,2013-01-04 18:50:00,
2013-01-04 13:55:00,33.5,24.1,30.23,South,175,5.0,11.0,68,0.00,,,0.00,Wunderground v.1.15,2013-01-04 18:55:00,
2013-01-04 14:00:00,33.3,23.9,30.23,NW,307,5.0,8.0,68,0.00,,,0.00,Wunderground v.1.15,2013-01-04 19:00:00,
2013-01-04 14:06:00,33.2,23.8,30.22,SSW,204,5.0,8.0,68,0.00,,,0.00,Wunderground v.1.15,2013-01-04 19:06:00,
2013-01-04 14:12:00,33.2,23.8,30.22,WSW,246,4.0,6.0,68,0.00,,,0.00,Wunderground v.1.15,2013-01-04 19:12:00,
2013-01-04 14:17:00,33.4,24.0,30.22,SE,143,3.0,6.0,68,0.00,,,0.00,Wunderground v.1.15,2013-01-04 19:17:00,
2013-01-04 14:23:00,33.5,24.1,30.22,South,173,3.0,5.0,68,0.00,,,0.00,Wunderground v.1.15,2013-01-04 19:23:00,
2013-01-04 14:28:00,33.4,24.0,30.23,SSE,148,4.0,6.0,68,0.00,,,0.00,Wunderground v.1.15,2013-01-04 19:28:00,
2013-01-04 14:33:00,33.3,23.5,30.23,East,97,4.0,17.0,67,0.00,,,0.00,Wunderground v.1.15,2013-01-04 19:33:00,
2013-01-04 14:38:00,33.3,23.9,30.23,NNW,344,4.0,17.0,68,0.00,,,0.00,Wunderground v.1.15,2013-01-04 19:38:00,
2013-01-04 14:43:00,33.4,24.0,30.23,SE,146,3.0,17.0,68,0.00,,,0.00,Wunderground v.1.15,2013-01-04 19:43:00,
2013-01-04 14:49:00,33.4,24.0,30.23,SE,132,4.0,17.0,68,0.00,,,0.00,Wunderground v.1.15,2013-01-04 19:49:00,
2013-01-04 14:57:00,33.1,23.7,30.23,WNW,302,4.0,4.0,68,0.00,,,0.00,Wunderground v.1.15,2013-01-04 19:57:00,
2013-01-04 15:02:00,33.2,23.8,30.23,North,360,4.0,4.0,68,0.00,,,0.00,Wunderground v.1.15,2013-01-04 20:02:00,
2013-01-04 15:07:00,33.4,24.0,30.23,SSW,196,4.0,10.0,68,0.00,,,0.00,Wunderground v.1.15,2013-01-04 20:07:00,
2013-01-04 15:13:00,33.5,24.1,30.24,SW,217,4.0,9.0,68,0.00,,,0.00,Wunderground v.1.15,2013-01-04 20:13:00,
2013-01-04 15:18:00,33.5,24.1,30.24,WNW,296,4.0,9.0,68,0.00,,,0.00,Wunderground v.1.15,2013-01-04 20:18:00,
2013-01-04 15:23:00,33.4,24.0,30.24,NNW,337,4.0,7.0,68,0.00,,,0.00,Wunderground v.1.15,2013-01-04 20:23:00,
2013-01-04 15:29:00,33.3,23.9,30.24,NNW,337,5.0,7.0,68,0.00,,,0.00,Wunderground v.1.15,2013-01-04 20:29:00,
2013-01-04 15:34:00,33.2,24.1,30.23,NW,320,5.0,13.0,69,0.00,,,0.00,Wunderground v.1.15,2013-01-04 20:34:00,
2013-01-04 15:40:00,33.3,23.9,30.24,NW,321,4.0,4.0,68,0.00,,,0.00,Wunderground v.1.15,2013-01-04 20:40:00,
2013-01-04 15:45:00,33.3,23.9,30.24,WNW,298,4.0,13.0,68,0.00,,,0.00,Wunderground v.1.15,2013-01-04 20:45:00,
2013-01-04 16:26:00,32.5,23.8,30.23,SE,146,2.0,2.0,70,0.00,,,0.00,Wunderground v.1.15,2013-01-04 21:26:00,
2013-01-04 16:31:00,32.4,23.7,30.23,South,184,2.0,4.0,70,0.00,,,0.00,Wunderground v.1.15,2013-01-04 21:31:00,
2013-01-04 16:37:00,32.3,23.6,30.23,WNW,291,2.0,4.0,70,0.00,,,0.00,Wunderground v.1.15,2013-01-04 21:37:00,
2013-01-04 16:43:00,32.2,23.5,30.23,ENE,76,2.0,3.0,70,0.00,,,0.00,Wunderground v.1.15,2013-01-04 21:43:00,
2013-01-04 16:48:00,32.1,23.8,30.23,SSE,156,2.0,2.0,71,0.00,,,0.00,Wunderground v.1.15,2013-01-04 21:48:00,
2013-01-04 16:54:00,31.9,23.6,30.23,SE,134,3.0,5.0,71,0.00,,,0.00,Wunderground v.1.15,2013-01-04 21:54:00,
2013-01-04 17:00:00,31.7,23.7,30.23,ESE,111,2.0,2.0,72,0.00,,,0.00,Wunderground v.1.15,2013-01-04 22:00:00,
2013-01-04 17:05:00,31.5,23.5,30.23,SSE,152,1.0,7.0,72,0.00,,,0.00,Wunderground v.1.15,2013-01-04 22:05:00,
2013-01-04 17:10:00,31.4,23.4,30.23,NNW,329,2.0,2.0,72,0.00,,,0.00,Wunderground v.1.15,2013-01-04 22:10:00,
2013-01-04 17:16:00,31.3,23.6,30.24,SSE,155,2.0,4.0,73,0.00,,,0.00,Wunderground v.1.15,2013-01-04 22:16:00,
2013-01-04 17:21:00,31.2,23.5,30.24,SE,140,2.0,3.0,73,0.00,,,0.00,Wunderground v.1.15,2013-01-04 22:21:00,
2013-01-04 17:26:00,31.1,23.8,30.24,South,184,2.0,6.0,74,0.00,,,0.00,Wunderground v.1.15,2013-01-04 22:26:00,
2013-01-04 17:31:00,31.1,23.8,30.24,SSE,160,2.0,13.0,74,0.00,,,0.00,Wunderground v.1.15,2013-01-04 22:31:00,
2013-01-04 17:36:00,31.0,23.7,30.24,East,96,2.0,13.0,74,0.00,,,0.00,Wunderground v.1.15,2013-01-04 22:36:00,
2013-01-04 17:42:00,31.0,23.7,30.25,North,10,2.0,13.0,74,0.00,,,0.00,Wunderground v.1.15,2013-01-04 22:42:00,
2013-01-04 17:47:00,31.0,24.0,30.25,SSW,207,2.0,13.0,75,0.00,,,0.00,Wunderground v.1.15,2013-01-04 22:47:00,
2013-01-04 17:52:00,30.8,23.8,30.25,NNW,334,1.0,13.0,75,0.00,,,0.00,Wunderground v.1.15,2013-01-04 22:52:00,
2013-01-04 17:57:00,30.8,23.8,30.25,SSW,196,2.0,13.0,75,0.00,,,0.00,Wunderground v.1.15,2013-01-04 22:57:00,
2013-01-04 18:03:00,30.7,24.0,30.25,SSE,167,2.0,4.0,76,0.00,,,0.00,Wunderground v.1.15,2013-01-04 23:03:00,
2013-01-04 18:08:00,30.7,24.0,30.25,SE,146,2.0,4.0,76,0.00,,,0.00,Wunderground v.1.15,2013-01-04 23:08:00,
2013-01-04 18:13:00,30.7,24.0,30.25,North,360,2.0,4.0,76,0.00,,,0.00,Wunderground v.1.15,2013-01-04 23:13:00,
2013-01-04 18:18:00,30.6,23.9,30.25,South,183,2.0,4.0,76,0.00,,,0.00,Wunderground v.1.15,2013-01-04 23:18:00,
2013-01-04 18:24:00,30.5,23.8,30.25,South,169,3.0,7.0,76,0.00,,,0.00,Wunderground v.1.15,2013-01-04 23:24:00,
2013-01-04 18:30:00,30.5,24.1,30.26,SSE,161,3.0,3.0,77,0.00,,,0.00,Wunderground v.1.15,2013-01-04 23:30:00,
2013-01-04 18:36:00,30.4,24.1,30.26,SSE,154,2.0,8.0,77,0.00,,,0.00,Wunderground v.1.15,2013-01-04 23:36:00,
2013-01-04 18:41:00,30.4,24.1,30.27,SSE,155,2.0,8.0,77,0.00,,,0.00,Wunderground v.1.15,2013-01-04 23:41:00,
2013-01-04 18:46:00,30.3,24.0,30.27,South,176,2.0,8.0,77,0.00,,,0.00,Wunderground v.1.15,2013-01-04 23:46:00,
2013-01-04 18:51:00,30.3,24.0,30.27,SSW,200,2.0,8.0,77,0.00,,,0.00,Wunderground v.1.15,2013-01-04 23:51:00,
2013-01-04 18:56:00,30.3,24.0,30.27,East,81,2.0,8.0,77,0.00,,,0.00,Wunderground v.1.15,2013-01-04 23:56:00,
2013-01-04 19:01:00,30.3,24.0,30.26,NE,40,2.0,2.0,77,0.00,,,0.00,Wunderground v.1.15,2013-01-05 00:01:00,
2013-01-04 19:06:00,30.3,24.0,30.27,South,170,2.0,4.0,77,0.00,,,0.00,Wunderground v.1.15,2013-01-05 00:06:00,
2013-01-04 19:11:00,30.2,24.2,30.27,SE,144,2.0,4.0,78,0.00,,,0.00,Wunderground v.1.15,2013-01-05 00:11:00,
2013-01-04 19:16:00,30.1,24.1,30.27,ENE,69,2.0,6.0,78,0.00,,,0.00,Wunderground v.1.15,2013-01-05 00:16:00,
2013-01-04 19:22:00,30.1,24.1,30.27,SSW,203,2.0,3.0,78,0.00,,,0.00,Wunderground v.1.15,2013-01-05 00:22:00,
2013-01-04 19:27:00,30.1,24.1,30.28,South,170,2.0,4.0,78,0.00,,,0.00,Wunderground v.1.15,2013-01-05 00:27:00,
2013-01-04 19:33:00,30.0,24.0,30.28,ENE,59,2.0,10.0,78,0.00,,,0.00,Wunderground v.1.15,2013-01-05 00:33:00,
2013-01-04 19:39:00,29.9,23.9,30.28,SW,224,2.0,10.0,78,0.00,,,0.00,Wunderground v.1.15,2013-01-05 00:39:00,
2013-01-04 19:45:00,29.8,24.1,30.27,SSE,161,2.0,10.0,79,0.00,,,0.00,Wunderground v.1.15,2013-01-05 00:45:00,
2013-01-04 19:50:00,29.8,24.1,30.27,SE,133,2.0,10.0,79,0.00,,,0.00,Wunderground v.1.15,2013-01-05 00:50:00,
2013-01-04 19:56:00,29.7,24.0,30.27,SSE,157,2.0,10.0,79,0.00,,,0.00,Wunderground v.1.15,2013-01-05 00:56:00,
2013-01-04 20:01:00,29.7,24.0,30.27,SSE,155,2.0,3.0,79,0.00,,,0.00,Wunderground v.1.15,2013-01-05 01:01:00,
2013-01-04 20:07:00,29.7,24.0,30.27,SE,128,2.0,3.0,79,0.00,,,0.00,Wunderground v.1.15,2013-01-05 01:07:00,
2013-01-04 20:12:00,29.7,24.0,30.27,SE,130,1.0,2.0,79,0.00,,,0.00,Wunderground v.1.15,2013-01-05 01:12:00,
2013-01-04 20:18:00,29.6,23.9,30.27,South,187,1.0,3.0,79,0.00,,,0.00,Wunderground v.1.15,2013-01-05 01:18:00,
2013-01-04 20:23:00,29.6,23.9,30.27,West,278,2.0,4.0,79,0.00,,,0.00,Wunderground v.1.15,2013-01-05 01:23:00,
2013-01-04 20:28:00,29.6,23.9,30.27,SSW,212,2.0,4.0,79,0.00,,,0.00,Wunderground v.1.15,2013-01-05 01:28:00,
2013-01-04 20:34:00,29.7,24.0,30.28,ENE,72,2.0,8.0,79,0.00,,,0.00,Wunderground v.1.15,2013-01-05 01:34:00,
2013-01-04 20:39:00,29.8,24.1,30.28,SSE,153,2.0,8.0,79,0.00,,,0.00,Wunderground v.1.15,2013-01-05 01:39:00,
2013-01-04 20:45:00,29.8,24.1,30.28,East,92,2.0,8.0,79,0.00,,,0.00,Wunderground v.1.15,2013-01-05 01:45:00,
2013-01-04 20:51:00,30.0,24.3,30.29,ESE,119,3.0,8.0,79,0.00,,,0.00,Wunderground v.1.15,2013-01-05 01:51:00,
2013-01-04 20:56:00,30.0,24.0,30.29,ESE,107,3.0,8.0,78,0.00,,,0.00,Wunderground v.1.15,2013-01-05 01:56:00,
2013-01-04 21:01:00,30.1,24.1,30.29,NNE,20,2.0,8.0,78,0.00,,,0.00,Wunderground v.1.15,2013-01-05 02:01:00,
2013-01-04 21:06:00,30.1,23.8,30.29,NW,306,2.0,8.0,77,0.00,,,0.00,Wunderground v.1.15,2013-01-05 02:06:00,
2013-01-04 21:12:00,30.1,23.4,30.30,North,9,2.0,3.0,76,0.00,,,0.00,Wunderground v.1.15,2013-01-05 02:12:00,
2013-01-04 21:17:00,30.0,23.4,30.30,East,91,1.0,3.0,76,0.00,,,0.00,Wunderground v.1.15,2013-01-05 02:17:00,
2013-01-04 21:23:00,30.1,23.1,30.31,NNW,331,2.0,5.0,75,0.00,,,0.00,Wunderground v.1.15,2013-01-05 02:23:00,
2013-01-04 21:28:00,30.1,23.1,30.31,North,355,3.0,5.0,75,0.00,,,0.00,Wunderground v.1.15,2013-01-05 02:28:00,
2013-01-04 21:33:00,30.1,22.8,30.31,WNW,290,2.0,7.0,74,0.00,,,0.00,Wunderground v.1.15,2013-01-05 02:33:00,
2013-01-04 21:38:00,30.1,22.8,30.31,NE,56,2.0,7.0,74,0.00,,,0.00,Wunderground v.1.15,2013-01-05 02:38:00,
2013-01-04 21:43:00,30.2,22.9,30.31,WNW,291,2.0,7.0,74,0.00,,,0.00,Wunderground v.1.15,2013-01-05 02:43:00,
2013-01-04 21:48:00,30.2,22.6,30.31,WNW,293,2.0,7.0,73,0.00,,,0.00,Wunderground v.1.15,2013-01-05 02:48:00,
2013-01-04 21:54:00,30.3,22.7,30.31,West,280,2.0,7.0,73,0.00,,,0.00,Wunderground v.1.15,2013-01-05 02:54:00,
2013-01-04 21:59:00,30.3,22.7,30.31,WSW,252,2.0,7.0,73,0.00,,,0.00,Wunderground v.1.15,2013-01-05 02:59:00,
2013-01-04 22:05:00,30.2,22.6,30.31,NW,311,2.0,4.0,73,0.00,,,0.00,Wunderground v.1.15,2013-01-05 03:05:00,
2013-01-04 22:11:00,30.1,22.5,30.30,SE,141,2.0,5.0,73,0.00,,,0.00,Wunderground v.1.15,2013-01-05 03:11:00,
2013-01-04 22:16:00,30.1,22.5,30.30,South,186,3.0,8.0,73,0.00,,,0.00,Wunderground v.1.15,2013-01-05 03:16:00,
2013-01-04 22:21:00,30.0,22.4,30.31,SE,128,4.0,4.0,73,0.00,,,0.00,Wunderground v.1.15,2013-01-05 03:21:00,
2013-01-04 22:26:00,30.0,22.4,30.31,ENE,57,3.0,6.0,73,0.00,,,0.00,Wunderground v.1.15,2013-01-05 03:26:00,
2013-01-04 22:31:00,29.9,22.3,30.31,WNW,298,2.0,8.0,73,0.00,,,0.00,Wunderground v.1.15,2013-01-05 03:31:00,
2013-01-04 22:36:00,29.9,22.3,30.31,SSW,207,1.0,8.0,73,0.00,,,0.00,Wunderground v.1.15,2013-01-05 03:36:00,
2013-01-04 22:41:00,29.9,22.6,30.31,NW,325,1.0,8.0,74,0.00,,,0.00,Wunderground v.1.15,2013-01-05 03:41:00,
2013-01-04 22:46:00,29.8,22.2,30.31,South,190,2.0,8.0,73,0.00,,,0.00,Wunderground v.1.15,2013-01-05 03:46:00,
2013-01-04 22:51:00,29.6,22.3,30.31,North,355,2.0,8.0,74,0.00,,,0.00,Wunderground v.1.15,2013-01-05 03:51:00,
2013-01-04 22:56:00,29.6,22.3,30.31,SE,141,1.0,8.0,74,0.00,,,0.00,Wunderground v.1.15,2013-01-05 03:56:00,
2013-01-04 23:02:00,29.5,22.2,30.31,SSW,200,2.0,4.0,74,0.00,,,0.00,Wunderground v.1.15,2013-01-05 04:02:00,
2013-01-04 23:08:00,29.4,22.1,30.31,NNE,15,2.0,4.0,74,0.00,,,0.00,Wunderground v.1.15,2013-01-05 04:08:00,
2013-01-04 23:13:00,29.3,22.4,30.31,SSE,161,2.0,4.0,75,0.00,,,0.00,Wunderground v.1.15,2013-01-05 04:13:00,
2013-01-04 23:19:00,29.2,22.3,30.31,WNW,289,2.0,4.0,75,0.00,,,0.00,Wunderground v.1.15,2013-01-05 04:19:00,
2013-01-04 23:24:00,29.2,22.3,30.32,NNW,345,2.0,2.0,75,0.00,,,0.00,Wunderground v.1.15,2013-01-05 04:24:00,
2013-01-04 23:29:00,29.1,22.2,30.32,West,269,1.0,3.0,75,0.00,,,0.00,Wunderground v.1.15,2013-01-05 04:29:00,
2013-01-04 23:34:00,29.1,22.2,30.32,NNW,327,1.0,8.0,75,0.00,,,0.00,Wunderground v.1.15,2013-01-05 04:34:00,
2013-01-04 23:40:00,29.1,22.2,30.32,NNW,328,1.0,1.0,75,0.00,,,0.00,Wunderground v.1.15,2013-01-05 04:40:00,
2013-01-04 23:46:00,29.0,22.1,30.32,South,176,1.0,8.0,75,0.00,,,0.00,Wunderground v.1.15,2013-01-05 04:46:00,
2013-01-04 23:52:00,28.9,22.0,30.31,West,275,1.0,8.0,75,0.00,,,0.00,Wunderground v.1.15,2013-01-05 04:52:00,
2013-01-04 23:58:00,28.8,22.2,30.32,East,90,1.0,8.0,76,0.00,,,0.00,Wunderground v.1.15,2013-01-05 04:58:00,